Location: Peterborough
(44.3091°N, 78.3197°W)
Time: 22:56:55
(UTC-04:00)

Vanguard 1 - Pass Details

Date: 22 April 2024
Orbit: 652 x 3825 km, 34.2° (Epoch: 29 May)

Event Time Altitude Azimuth Distance (km) Brightness Sun altitude
Rises 10:53:21 0° 277° (W) 6,423 13.9 46.6°
Reaches altitude 10° 10:59:17 10° 267° (W) 4,794 13.4 47.4°
Maximum altitude 11:08:01 23° 221° (SW) 2,872 12.7 48.6°
Drops below altitude 10° 11:13:52 10° 172° (S) 3,073 13.3 49.4°
Sets 11:16:41 0° 156° (SSE) 3,709 13.6 49.8°
